Hourly Data Report for September 19, 2019

TORONTO CITY
ONTARIO
Current Station Operator: ECCC - MSC

43°40'00.000" N
79°24'00.000" W
112.50 m
6158355
71508
XTO

Download Data

Hourly Data (September 2019)
Hourly Data Report for September 19, 2019
TIME
LST
Temp Definition
°C
Dew Point Definition
°C
Rel Hum Definition
%
Precip. Amount Definition
mm

Wind Dir Definition
10's deg

Wind Spd Definition
km/h
Visibility Definition
km
Stn Press Definition
kPa
Hmdx Definition


Wind Chill Definition


Weather Definition


00:00 18.0 11.3 65 0.0       101.08     LegendNANA
01:00 17.9 10.9 64 0.0       101.14     LegendNANA
02:00 17.4 11.3 67 0.0       101.10     LegendNANA
03:00 17.5 12.4 72 0.0       101.08     LegendNANA
04:00 17.1 12.6 75 0.0       101.04     LegendNANA
05:00 16.6 12.4 76 0.0       101.05     LegendNANA
06:00 15.3 12.1 81 0.0       101.09     LegendNANA
07:00 15.7 12.1 79 0.0       101.14     LegendNANA
08:00 17.9 11.8 68 0.0       101.15     LegendNANA
09:00 18.8 12.5 67 0.0       101.14     LegendNANA
10:00 19.8 10.7 56 0.0       101.10     LegendNANA
11:00 20.2 11.3 57 0.0       101.13     LegendNANA
12:00 21.5 10.3 49 0.0       101.11     LegendNANA
13:00 22.1 10.0 46 0.0       101.09     LegendNANA
14:00 22.5 10.4 46 0.0       100.99     LegendNANA
15:00 21.1 11.4 54 0.0       100.97     LegendNANA
16:00 20.4 11.1 55 0.0       100.94     LegendNANA
17:00 19.8 12.2 61 0.0       100.93     LegendNANA
18:00 19.2 12.1 63 0.0       100.91     LegendNANA
19:00 18.5 12.9 70 0.0       100.92     LegendNANA
20:00 18.4 13.4 72 0.0       100.94     LegendNANA
21:00 18.3 13.8 75 0.0       100.92     LegendNANA
22:00 18.5 13.0 70 0.0       100.90     LegendNANA
23:00 17.3 12.7 74 0.0       100.89     LegendNANA

Notes on Data Quality.

Legend

  • E = Estimated
  • M = Missing
  • NA = Not Available*
  • [empty] = Indicates an unobserved value
Date modified: